TimeCDT,TemperatureF,Dew PointF,Humidity,Sea Level PressureIn,VisibilityMPH,Wind Direction,Wind SpeedMPH,Gust SpeedMPH,PrecipitationIn,Events,Conditions,WindDirDegrees,DateUTC
12:05 AM,60.8,57.2,88,29.65,7.0,North,8.1,-,0.00,Rain-Thunderstorm,Light Rain,350,2013-03-24 05:05:00
12:12 AM,60.8,57.2,88,29.67,5.0,NNW,19.6,23.0,0.00,Rain,Light Rain,330,2013-03-24 05:12:00
12:30 AM,57.2,55.4,94,29.73,2.5,WNW,18.4,26.5,0.03,Rain,Light Rain,300,2013-03-24 05:30:00
12:45 AM,57.2,55.4,94,29.66,3.0,NE,13.8,-,0.11,Rain,Light Rain,40,2013-03-24 05:45:00
12:54 AM,57.0,55.0,93,29.65,7.0,NE,11.5,-,0.11,Rain,Light Rain,40,2013-03-24 05:54:00
1:54 AM,57.0,55.0,93,29.61,10.0,East,5.8,-,0.09,,Mostly Cloudy,100,2013-03-24 06:54:00
2:54 AM,55.0,54.0,96,29.61,10.0,Calm,Calm,-,N/A,,Mostly Cloudy,0,2013-03-24 07:54:00
3:31 AM,53.6,53.6,100,29.62,1.5,West,3.5,-,N/A,,Partly Cloudy,270,2013-03-24 08:31:00
3:40 AM,53.6,51.8,94,29.62,0.8,Calm,Calm,-,N/A,,Mist,0,2013-03-24 08:40:00
3:54 AM,53.1,52.0,96,29.61,0.8,Calm,Calm,-,N/A,,Mist,0,2013-03-24 08:54:00
4:07 AM,51.8,51.8,100,29.63,0.2,West,3.5,-,N/A,Fog,Fog,270,2013-03-24 09:07:00
4:14 AM,51.8,51.8,100,29.63,1.0,Calm,Calm,-,N/A,,Mist,0,2013-03-24 09:14:00
4:17 AM,53.6,51.8,94,29.63,2.5,Calm,Calm,-,N/A,,Scattered Clouds,0,2013-03-24 09:17:00
4:24 AM,53.6,53.6,100,29.63,6.0,Calm,Calm,-,N/A,,Partly Cloudy,0,2013-03-24 09:24:00
4:34 AM,53.6,51.8,94,29.62,1.8,Calm,Calm,-,N/A,,Clear,0,2013-03-24 09:34:00
4:54 AM,52.0,52.0,100,29.60,0.8,Calm,Calm,-,N/A,,Clear,0,2013-03-24 09:54:00
5:12 AM,51.8,50.0,94,29.64,0.5,NW,3.5,-,N/A,Fog,Fog,310,2013-03-24 10:12:00
5:18 AM,53.6,51.8,94,29.66,1.2,NW,4.6,-,N/A,,Scattered Clouds,310,2013-03-24 10:18:00
5:22 AM,53.6,51.8,94,29.66,4.0,WNW,3.5,-,N/A,,Scattered Clouds,290,2013-03-24 10:22:00
6:12 AM,53.6,53.6,100,29.64,1.0,West,4.6,-,N/A,,Overcast,280,2013-03-24 11:12:00
6:21 AM,53.6,53.6,100,29.64,0.1,West,5.8,-,N/A,Fog,Fog,270,2013-03-24 11:21:00
6:54 AM,54.0,54.0,100,29.66,0.1,West,8.1,-,N/A,Fog,Fog,270,2013-03-24 11:54:00
7:34 AM,55.4,55.4,100,29.70,0.8,West,8.1,-,N/A,,Overcast,270,2013-03-24 12:34:00
7:45 AM,55.4,55.4,100,29.70,2.5,West,10.4,-,N/A,,Overcast,280,2013-03-24 12:45:00
7:52 AM,55.4,55.4,100,29.71,3.0,WNW,10.4,-,N/A,,Overcast,290,2013-03-24 12:52:00
7:54 AM,55.9,55.0,97,29.70,3.0,West,10.4,-,N/A,,Overcast,280,2013-03-24 12:54:00
8:03 AM,55.4,55.4,100,29.71,2.5,WNW,10.4,-,N/A,,Overcast,290,2013-03-24 13:03:00
8:11 AM,55.4,55.4,100,29.71,4.0,West,10.4,19.6,N/A,,Overcast,280,2013-03-24 13:11:00
8:31 AM,55.4,53.6,94,29.72,2.0,West,9.2,-,0.00,Rain,Light Rain,280,2013-03-24 13:31:00
8:42 AM,53.6,53.6,100,29.73,6.0,West,15.0,19.6,0.00,,Overcast,280,2013-03-24 13:42:00
8:54 AM,54.0,53.1,97,29.73,8.0,WNW,12.7,18.4,0.00,,Overcast,290,2013-03-24 13:54:00
9:54 AM,53.1,52.0,96,29.73,10.0,West,8.1,-,N/A,,Overcast,270,2013-03-24 14:54:00
10:44 AM,53.6,51.8,94,29.75,10.0,West,10.4,17.3,N/A,,Overcast,260,2013-03-24 15:44:00
10:54 AM,54.0,51.1,90,29.75,10.0,West,16.1,24.2,N/A,,Overcast,270,2013-03-24 15:54:00
11:06 AM,53.6,50.0,88,29.75,10.0,West,11.5,23.0,N/A,,Overcast,280,2013-03-24 16:06:00
11:18 AM,53.6,50.0,88,29.76,10.0,West,16.1,24.2,N/A,,Overcast,270,2013-03-24 16:18:00
11:54 AM,52.0,48.0,86,29.78,10.0,West,16.1,29.9,N/A,,Overcast,270,2013-03-24 16:54:00
12:26 PM,55.4,46.4,72,29.78,10.0,West,11.5,25.3,N/A,,Mostly Cloudy,260,2013-03-24 17:26:00
12:45 PM,55.4,46.4,72,29.79,10.0,WNW,10.4,20.7,N/A,,Overcast,300,2013-03-24 17:45:00
12:54 PM,55.0,44.1,67,29.78,10.0,West,16.1,26.5,N/A,,Overcast,280,2013-03-24 17:54:00
1:54 PM,57.0,39.9,53,29.78,10.0,West,20.7,31.1,N/A,,Scattered Clouds,270,2013-03-24 18:54:00
2:54 PM,55.9,37.9,51,29.80,10.0,West,20.7,33.4,N/A,,Scattered Clouds,280,2013-03-24 19:54:00
3:54 PM,54.0,35.1,49,29.82,10.0,West,21.9,28.8,N/A,,Partly Cloudy,270,2013-03-24 20:54:00
4:54 PM,52.0,34.0,50,29.84,10.0,NW,16.1,25.3,N/A,,Scattered Clouds,320,2013-03-24 21:54:00
5:54 PM,50.0,32.0,50,29.88,10.0,WNW,13.8,26.5,N/A,,Scattered Clouds,300,2013-03-24 22:54:00
6:54 PM,48.9,30.0,48,29.90,10.0,WNW,18.4,27.6,N/A,,Scattered Clouds,300,2013-03-24 23:54:00
7:54 PM,48.2,30.2,50,29.93,10.0,NW,12.7,23.0,N/A,,Mostly Cloudy,310,2013-03-25 00:54:00
8:54 PM,46.9,28.9,50,29.95,10.0,West,11.5,42.6,N/A,,Overcast,280,2013-03-25 01:54:00
9:54 PM,44.1,28.0,53,29.99,10.0,NNW,17.3,32.2,N/A,,Mostly Cloudy,330,2013-03-25 02:54:00
10:54 PM,42.1,27.0,55,30.01,10.0,NNW,17.3,-,N/A,,Mostly Cloudy,330,2013-03-25 03:54:00
11:54 PM,41.0,27.0,57,30.02,10.0,NW,15.0,26.5,N/A,,Scattered Clouds,310,2013-03-25 04:54:00